Time,TemperatureF,DewpointF,PressureIn,WindDirection,WindDirectionDegrees,WindSpeedMPH,WindSpeedGustMPH,Humidity,HourlyPrecipIn,Conditions,Clouds,dailyrainin,SoftwareType,DateUTC
2013-05-26 00:00:00,53.1,46.8,30.16,SE,133,2.0,2.0,79,0.00,OVC,OVC,0.00,WeatherDisplay:10.37,2013-05-26 05:00:00,
2013-05-26 00:06:00,53.0,46.7,30.15,SE,132,2.3,2.3,79,0.00,OVC,OVC,0.00,WeatherDisplay:10.37,2013-05-26 05:06:00,
2013-05-26 00:11:00,52.9,46.6,30.15,East,96,3.5,3.5,79,0.00,OVC,OVC,0.00,WeatherDisplay:10.37,2013-05-26 05:11:00,
2013-05-26 00:16:00,52.9,46.6,30.15,SE,138,6.9,6.9,79,0.00,OVC,OVC,0.00,WeatherDisplay:10.37,2013-05-26 05:16:00,
2013-05-26 00:21:00,52.8,46.5,30.14,SSE,157,3.5,3.5,79,0.00,OVC,OVC,0.00,WeatherDisplay:10.37,2013-05-26 05:21:00,
2013-05-26 00:26:00,52.8,46.5,30.14,SSE,157,2.3,2.3,79,0.00,OVC,OVC,0.00,WeatherDisplay:10.37,2013-05-26 05:26:00,
2013-05-26 00:31:00,52.8,46.5,30.15,SE,142,4.6,4.6,79,0.00,OVC,OVC,0.00,WeatherDisplay:10.37,2013-05-26 05:31:00,
2013-05-26 00:37:00,52.7,46.7,30.14,ENE,60,3.5,3.5,80,0.00,OVC,OVC,0.00,WeatherDisplay:10.37,2013-05-26 05:37:00,
2013-05-26 00:42:00,52.7,46.7,30.14,SE,130,3.5,3.5,80,0.00,OVC,OVC,0.00,WeatherDisplay:10.37,2013-05-26 05:42:00,
2013-05-26 00:47:00,52.6,46.6,30.14,NE,49,5.8,5.8,80,0.00,OVC,OVC,0.00,WeatherDisplay:10.37,2013-05-26 05:47:00,
2013-05-26 00:52:00,52.5,46.5,30.14,East,96,3.5,0.0,80,0.00,OVC,OVC,0.00,WeatherDisplay:10.37,2013-05-26 05:52:00,
2013-05-26 00:57:00,52.4,46.4,30.14,NE,55,2.3,2.3,80,0.00,OVC,OVC,0.00,WeatherDisplay:10.37,2013-05-26 05:57:00,
2013-05-26 01:03:00,52.4,46.4,30.13,NE,56,3.5,3.5,80,0.00,OVC,OVC,0.00,WeatherDisplay:10.37,2013-05-26 06:03:00,
2013-05-26 01:08:00,52.4,46.4,30.13,SE,126,2.3,0.0,80,0.00,OVC,OVC,0.00,WeatherDisplay:10.37,2013-05-26 06:08:00,
2013-05-26 01:13:00,52.3,46.3,30.13,SE,126,2.3,2.3,80,0.00,OVC,OVC,0.00,WeatherDisplay:10.37,2013-05-26 06:13:00,
2013-05-26 01:18:00,52.3,46.3,30.13,ESE,119,1.0,0.0,80,0.00,OVC,OVC,0.00,WeatherDisplay:10.37,2013-05-26 06:18:00,
2013-05-26 01:23:00,52.3,46.3,30.13,ENE,76,3.5,3.5,80,0.00,OVC,OVC,0.00,WeatherDisplay:10.37,2013-05-26 06:23:00,
2013-05-26 01:28:00,52.3,46.3,30.13,NE,56,1.2,0.0,80,0.00,OVC,OVC,0.00,WeatherDisplay:10.37,2013-05-26 06:28:00,
2013-05-26 01:34:00,52.3,46.6,30.13,ENE,59,3.0,3.0,81,0.00,OVC,OVC,0.00,WeatherDisplay:10.37,2013-05-26 06:34:00,
2013-05-26 01:39:00,52.3,46.3,30.13,ENE,66,4.6,4.6,80,0.00,OVC,OVC,0.00,WeatherDisplay:10.37,2013-05-26 06:39:00,
2013-05-26 01:44:00,52.2,46.2,30.13,NE,55,2.3,2.3,80,0.00,OVC,OVC,0.00,WeatherDisplay:10.37,2013-05-26 06:44:00,
2013-05-26 01:49:00,52.2,46.2,30.13,NE,55,2.3,2.3,80,0.00,OVC,OVC,0.00,WeatherDisplay:10.37,2013-05-26 06:49:00,
2013-05-26 01:55:00,52.2,46.2,30.13,SSE,156,2.3,2.3,80,0.00,OVC,OVC,0.00,WeatherDisplay:10.37,2013-05-26 06:55:00,
2013-05-26 02:00:00,52.2,46.2,30.14,SSE,156,1.2,1.2,80,0.00,OVC,OVC,0.00,WeatherDisplay:10.37,2013-05-26 07:00:00,
2013-05-26 02:05:00,52.3,46.3,30.13,SE,146,1.2,1.2,80,0.00,OVC,OVC,0.00,WeatherDisplay:10.37,2013-05-26 07:05:00,
2013-05-26 02:10:00,52.3,46.3,30.12,SSE,150,1.2,0.0,80,0.00,OVC,OVC,0.00,WeatherDisplay:10.37,2013-05-26 07:10:00,
2013-05-26 02:16:00,52.3,46.3,30.11,SE,141,3.5,3.5,80,0.00,OVC,OVC,0.00,WeatherDisplay:10.37,2013-05-26 07:16:00,
2013-05-26 02:21:00,52.3,46.3,30.11,ESE,121,1.2,1.2,80,0.00,OVC,OVC,0.00,WeatherDisplay:10.37,2013-05-26 07:21:00,
2013-05-26 02:26:00,52.3,46.3,30.11,ESE,119,4.6,4.6,80,0.00,OVC,OVC,0.00,WeatherDisplay:10.37,2013-05-26 07:26:00,
2013-05-26 02:31:00,52.4,46.4,30.11,SE,144,3.5,3.5,80,0.00,OVC,OVC,0.00,WeatherDisplay:10.37,2013-05-26 07:31:00,
2013-05-26 02:36:00,52.4,46.4,30.10,SE,134,4.0,4.0,80,0.00,OVC,OVC,0.00,WeatherDisplay:10.37,2013-05-26 07:36:00,
2013-05-26 02:41:00,52.4,46.4,30.09,SSE,153,5.8,5.8,80,0.00,OVC,OVC,0.00,WeatherDisplay:10.37,2013-05-26 07:41:00,
2013-05-26 02:47:00,52.5,46.5,30.09,SE,139,9.2,9.2,80,0.00,OVC,OVC,0.00,WeatherDisplay:10.37,2013-05-26 07:47:00,
2013-05-26 02:52:00,52.6,46.6,30.08,SSE,153,9.2,9.2,80,0.00,OVC,OVC,0.00,WeatherDisplay:10.37,2013-05-26 07:52:00,
2013-05-26 02:57:00,52.6,46.6,30.08,ESE,111,5.8,5.8,80,0.00,OVC,OVC,0.00,WeatherDisplay:10.37,2013-05-26 07:57:00,
2013-05-26 03:02:00,52.7,46.7,30.08,ESE,119,9.2,9.2,80,0.00,OVC,OVC,0.00,WeatherDisplay:10.37,2013-05-26 08:02:00,
2013-05-26 03:07:00,52.8,46.5,30.08,SE,145,5.0,5.0,79,0.00,OVC,OVC,0.00,WeatherDisplay:10.37,2013-05-26 08:07:00,
2013-05-26 03:12:00,52.8,46.5,30.08,SSE,163,6.9,6.9,79,0.00,OVC,OVC,0.00,WeatherDisplay:10.37,2013-05-26 08:12:00,
2013-05-26 03:17:00,52.8,46.5,30.08,SSE,153,3.5,3.5,79,0.00,OVC,OVC,0.00,WeatherDisplay:10.37,2013-05-26 08:17:00,
2013-05-26 03:22:00,52.8,46.5,30.08,SE,138,5.8,5.8,79,0.00,OVC,OVC,0.00,WeatherDisplay:10.37,2013-05-26 08:22:00,
2013-05-26 03:28:00,52.8,46.5,30.08,SSE,152,8.0,8.0,79,0.00,OVC,OVC,0.00,WeatherDisplay:10.37,2013-05-26 08:28:00,
2013-05-26 03:33:00,52.8,46.5,30.09,SSE,150,3.5,4.5,79,0.00,OVC,OVC,0.00,WeatherDisplay:10.37,2013-05-26 08:33:00,
2013-05-26 03:38:00,52.8,46.5,30.09,East,96,4.6,4.6,79,0.00,OVC,OVC,0.00,WeatherDisplay:10.37,2013-05-26 08:38:00,
2013-05-26 03:43:00,52.9,46.6,30.09,SSE,161,10.0,10.0,79,0.00,OVC,OVC,0.00,WeatherDisplay:10.37,2013-05-26 08:43:00,
2013-05-26 03:48:00,52.9,46.6,30.09,SSE,163,2.3,2.3,79,0.00,OVC,OVC,0.00,WeatherDisplay:10.37,2013-05-26 08:48:00,
2013-05-26 03:53:00,52.9,46.6,30.09,SE,145,4.6,4.6,79,0.00,OVC,OVC,0.00,WeatherDisplay:10.37,2013-05-26 08:53:00,
2013-05-26 03:59:00,52.9,46.6,30.09,SSE,151,10.4,10.4,79,0.00,OVC,OVC,0.00,WeatherDisplay:10.37,2013-05-26 08:59:00,
2013-05-26 04:04:00,53.0,46.7,30.09,SSE,148,3.5,3.5,79,0.00,OVC,OVC,0.00,WeatherDisplay:10.37,2013-05-26 09:04:00,
2013-05-26 04:09:00,53.0,46.7,30.09,SE,141,9.2,9.2,79,0.00,OVC,OVC,0.00,WeatherDisplay:10.37,2013-05-26 09:09:00,
2013-05-26 04:14:00,53.0,46.7,30.09,SSE,163,5.0,5.0,79,0.00,OVC,OVC,0.00,WeatherDisplay:10.37,2013-05-26 09:14:00,
2013-05-26 04:19:00,53.0,46.7,30.09,SSE,150,5.8,5.8,79,0.00,OVC,OVC,0.00,WeatherDisplay:10.37,2013-05-26 09:19:00,
2013-05-26 04:24:00,53.0,46.7,30.08,SE,146,3.5,3.5,79,0.00,OVC,OVC,0.00,WeatherDisplay:10.37,2013-05-26 09:24:00,
2013-05-26 04:30:00,53.0,46.7,30.08,SE,128,9.2,9.2,79,0.00,OVC,OVC,0.00,WeatherDisplay:10.37,2013-05-26 09:30:00,
2013-05-26 04:35:00,53.0,46.7,30.08,SSE,162,3.5,3.5,79,0.00,OVC,OVC,0.00,WeatherDisplay:10.37,2013-05-26 09:35:00,
2013-05-26 04:40:00,53.0,46.7,30.08,SSE,162,3.5,3.5,79,0.00,OVC,OVC,0.00,WeatherDisplay:10.37,2013-05-26 09:40:00,
2013-05-26 04:45:00,52.9,46.6,30.08,SSE,155,10.4,10.4,79,0.00,OVC,OVC,0.00,WeatherDisplay:10.37,2013-05-26 09:45:00,
2013-05-26 04:50:00,53.0,46.7,30.08,SE,142,5.8,5.8,79,0.00,OVC,OVC,0.00,WeatherDisplay:10.37,2013-05-26 09:50:00,
2013-05-26 04:55:00,53.0,46.7,30.09,SE,136,5.8,5.8,79,0.00,OVC,OVC,0.00,WeatherDisplay:10.37,2013-05-26 09:55:00,
2013-05-26 05:01:00,53.0,46.7,30.09,SSE,168,4.0,4.0,79,0.00,OVC,OVC,0.00,WeatherDisplay:10.37,2013-05-26 10:01:00,
2013-05-26 05:06:00,53.0,46.7,30.08,SSE,148,3.5,3.5,79,0.00,OVC,OVC,0.00,WeatherDisplay:10.37,2013-05-26 10:06:00,
2013-05-26 05:11:00,53.0,46.7,30.08,SSE,156,3.5,3.5,79,0.00,OVC,OVC,0.00,WeatherDisplay:10.37,2013-05-26 10:11:00,
2013-05-26 05:16:00,53.0,46.3,30.08,SSE,148,4.6,4.6,78,0.00,OVC,OVC,0.00,WeatherDisplay:10.37,2013-05-26 10:16:00,
2013-05-26 05:21:00,53.0,46.7,30.08,SE,132,5.8,5.8,79,0.00,OVC,OVC,0.00,WeatherDisplay:10.37,2013-05-26 10:21:00,
2013-05-26 05:26:00,53.0,46.3,30.07,SSE,157,6.9,6.9,78,0.00,OVC,OVC,0.00,WeatherDisplay:10.37,2013-05-26 10:26:00,
2013-05-26 05:31:00,53.0,46.7,30.07,SE,130,4.6,4.6,79,0.00,OVC,OVC,0.00,WeatherDisplay:10.37,2013-05-26 10:31:00,
2013-05-26 05:36:00,53.1,46.8,30.07,South,174,11.5,11.5,79,0.00,OVC,OVC,0.00,WeatherDisplay:10.37,2013-05-26 10:36:00,
2013-05-26 05:42:00,53.1,46.8,30.07,SSE,152,5.8,5.8,79,0.00,OVC,OVC,0.00,WeatherDisplay:10.37,2013-05-26 10:42:00,
2013-05-26 05:47:00,53.1,46.8,30.07,ESE,121,5.8,5.8,79,0.00,OVC,OVC,0.00,WeatherDisplay:10.37,2013-05-26 10:47:00,
2013-05-26 05:52:00,53.1,46.8,30.07,ESE,121,5.8,5.8,79,0.00,OVC,OVC,0.00,WeatherDisplay:10.37,2013-05-26 10:52:00,
2013-05-26 05:57:00,53.1,46.8,30.06,SE,136,13.8,13.8,79,0.00,OVC,OVC,0.00,WeatherDisplay:10.37,2013-05-26 10:57:00,
2013-05-26 06:02:00,53.2,46.5,30.06,South,175,9.2,9.2,78,0.00,OVC,OVC,0.00,WeatherDisplay:10.37,2013-05-26 11:02:00,
2013-05-26 06:08:00,53.2,46.5,30.06,SSE,166,3.0,3.0,78,0.00,OVC,OVC,0.00,WeatherDisplay:10.37,2013-05-26 11:08:00,
2013-05-26 06:13:00,53.2,46.5,30.06,SE,132,8.1,8.1,78,0.00,OVC,OVC,0.00,WeatherDisplay:10.37,2013-05-26 11:13:00,
2013-05-26 06:18:00,53.2,46.5,30.07,SW,227,9.2,9.2,78,0.00,OVC,OVC,0.00,WeatherDisplay:10.37,2013-05-26 11:18:00,
2013-05-26 06:23:00,53.2,46.5,30.07,SSE,150,6.9,6.9,78,0.00,OVC,OVC,0.00,WeatherDisplay:10.37,2013-05-26 11:23:00,
2013-05-26 06:28:00,53.2,46.5,30.08,SE,138,6.9,6.9,78,0.00,OVC,OVC,0.00,WeatherDisplay:10.37,2013-05-26 11:28:00,
2013-05-26 06:34:00,53.3,46.6,30.08,ESE,117,6.9,6.9,78,0.00,OVC,OVC,0.00,WeatherDisplay:10.37,2013-05-26 11:34:00,
2013-05-26 06:39:00,53.3,46.6,30.08,SE,140,11.5,11.5,78,0.00,OVC,OVC,0.00,WeatherDisplay:10.37,2013-05-26 11:39:00,
2013-05-26 06:44:00,53.3,46.6,30.08,ESE,119,10.4,10.4,78,0.00,OVC,OVC,0.00,WeatherDisplay:10.37,2013-05-26 11:44:00,
2013-05-26 06:49:00,53.4,46.7,30.08,ESE,116,4.0,4.0,78,0.00,OVC,OVC,0.00,WeatherDisplay:10.37,2013-05-26 11:49:00,
2013-05-26 06:54:00,53.5,46.8,30.08,South,175,11.5,11.5,78,0.00,OVC,OVC,0.00,WeatherDisplay:10.37,2013-05-26 11:54:00,
2013-05-26 06:59:00,53.5,46.8,30.08,SSE,161,6.9,6.9,78,0.00,OVC,OVC,0.00,WeatherDisplay:10.37,2013-05-26 11:59:00,
2013-05-26 07:05:00,53.5,46.8,30.08,SSE,150,12.7,12.7,78,0.00,OVC,OVC,0.00,WeatherDisplay:10.37,2013-05-26 12:05:00,
2013-05-26 07:10:00,53.5,46.8,30.07,SE,136,6.9,6.9,78,0.00,OVC,OVC,0.00,WeatherDisplay:10.37,2013-05-26 12:10:00,
2013-05-26 07:15:00,53.5,46.8,30.08,SSE,152,4.6,4.6,78,0.00,OVC,OVC,0.00,WeatherDisplay:10.37,2013-05-26 12:15:00,
2013-05-26 07:20:00,53.6,46.6,30.08,SSE,159,4.6,4.6,77,0.00,OVC,OVC,0.00,WeatherDisplay:10.37,2013-05-26 12:20:00,
2013-05-26 07:25:00,53.6,46.9,30.08,ESE,122,11.5,11.5,78,0.00,OVC,OVC,0.00,WeatherDisplay:10.37,2013-05-26 12:25:00,
2013-05-26 07:30:00,53.7,47.0,30.08,ESE,117,3.5,3.5,78,0.00,OVC,OVC,0.00,WeatherDisplay:10.37,2013-05-26 12:30:00,
2013-05-26 07:35:00,53.8,46.8,30.08,South,180,10.0,10.0,77,0.00,OVC,OVC,0.00,WeatherDisplay:10.37,2013-05-26 12:35:00,
2013-05-26 07:41:00,53.8,47.1,30.09,SE,134,10.4,10.4,78,0.00,OVC,OVC,0.00,WeatherDisplay:10.37,2013-05-26 12:41:00,
2013-05-26 07:46:00,53.9,47.2,30.09,SSE,152,5.8,5.8,78,0.00,OVC,OVC,0.00,WeatherDisplay:10.37,2013-05-26 12:46:00,
2013-05-26 07:51:00,54.0,47.3,30.09,SSE,153,3.5,3.5,78,0.00,OVC,OVC,0.00,WeatherDisplay:10.37,2013-05-26 12:51:00,
2013-05-26 07:56:00,54.1,47.4,30.10,SE,128,4.6,4.6,78,0.00,OVC,OVC,0.00,WeatherDisplay:10.37,2013-05-26 12:56:00,
2013-05-26 08:01:00,54.2,47.5,30.10,SSE,157,8.1,8.1,78,0.00,OVC,OVC,0.00,WeatherDisplay:10.37,2013-05-26 13:01:00,
2013-05-26 08:06:00,54.2,47.5,30.11,SSE,157,4.0,4.0,78,0.00,OVC,OVC,0.00,WeatherDisplay:10.37,2013-05-26 13:06:00,
2013-05-26 08:11:00,54.3,47.6,30.11,SSE,155,3.5,3.5,78,0.00,OVC,OVC,0.00,WeatherDisplay:10.37,2013-05-26 13:11:00,
2013-05-26 08:17:00,54.4,47.7,30.11,SSE,152,3.5,3.5,78,0.00,OVC,OVC,0.00,WeatherDisplay:10.37,2013-05-26 13:17:00,
2013-05-26 08:22:00,54.5,47.8,30.10,SSE,163,5.8,5.8,78,0.00,OVC,OVC,0.00,WeatherDisplay:10.37,2013-05-26 13:22:00,
2013-05-26 08:27:00,54.6,47.9,30.10,SE,124,5.8,5.8,78,0.00,OVC,OVC,0.00,WeatherDisplay:10.37,2013-05-26 13:27:00,
2013-05-26 08:32:00,54.6,47.5,30.11,South,171,5.8,5.8,77,0.00,OVC,OVC,0.00,WeatherDisplay:10.37,2013-05-26 13:32:00,
2013-05-26 08:37:00,54.8,47.7,30.10,SE,146,4.6,4.6,77,0.00,OVC,OVC,0.00,WeatherDisplay:10.37,2013-05-26 13:37:00,
2013-05-26 08:43:00,54.9,47.8,30.10,South,172,5.8,5.8,77,0.00,OVC,OVC,0.00,WeatherDisplay:10.37,2013-05-26 13:43:00,
2013-05-26 08:48:00,55.0,47.9,30.10,SE,136,3.5,3.5,77,0.00,OVC,OVC,0.00,WeatherDisplay:10.37,2013-05-26 13:48:00,
2013-05-26 08:53:00,55.1,48.0,30.10,SSE,148,9.2,9.2,77,0.00,OVC,OVC,0.00,WeatherDisplay:10.37,2013-05-26 13:53:00,
2013-05-26 08:58:00,55.2,48.1,30.10,SE,146,3.5,3.5,77,0.00,OVC,OVC,0.00,WeatherDisplay:10.37,2013-05-26 13:58:00,
2013-05-26 09:03:00,55.3,48.6,30.10,SE,127,3.5,3.5,78,0.00,OVC,OVC,0.00,WeatherDisplay:10.37,2013-05-26 14:03:00,
2013-05-26 09:09:00,55.5,48.4,30.10,East,82,3.5,3.5,77,0.00,OVC,OVC,0.00,WeatherDisplay:10.37,2013-05-26 14:09:00,
2013-05-26 09:14:00,55.7,48.6,30.10,SSE,160,0.0,0.0,77,0.00,OVC,OVC,0.00,WeatherDisplay:10.37,2013-05-26 14:14:00,
2013-05-26 09:19:00,55.8,48.7,30.11,SSE,150,3.5,3.5,77,0.00,OVC,OVC,0.00,WeatherDisplay:10.37,2013-05-26 14:19:00,
2013-05-26 09:24:00,56.0,48.9,30.10,SSE,167,11.5,11.5,77,0.00,OVC,OVC,0.00,WeatherDisplay:10.37,2013-05-26 14:24:00,
2013-05-26 09:30:00,56.1,48.6,30.11,South,169,4.6,4.6,76,0.00,OVC,OVC,0.00,WeatherDisplay:10.37,2013-05-26 14:30:00,
2013-05-26 09:35:00,56.3,48.8,30.10,SSE,157,0.0,0.0,76,0.00,OVC,OVC,0.00,WeatherDisplay:10.37,2013-05-26 14:35:00,
2013-05-26 09:40:00,56.4,48.9,30.11,SSE,154,2.3,2.3,76,0.00,OVC,OVC,0.00,WeatherDisplay:10.37,2013-05-26 14:40:00,
2013-05-26 09:46:00,56.7,49.2,30.10,SSE,153,5.8,5.8,76,0.00,OVC,OVC,0.00,WeatherDisplay:10.37,2013-05-26 14:46:00,
2013-05-26 09:51:00,57.1,49.6,30.10,SSE,150,3.5,3.5,76,0.00,OVC,OVC,0.00,WeatherDisplay:10.37,2013-05-26 14:51:00,
2013-05-26 09:56:00,57.5,50.0,30.11,SE,130,4.6,4.6,76,0.00,OVC,OVC,0.00,WeatherDisplay:10.37,2013-05-26 14:56:00,
2013-05-26 10:01:00,57.7,49.5,30.11,SSE,149,3.5,3.5,74,0.00,OVC,OVC,0.00,WeatherDisplay:10.37,2013-05-26 15:01:00,
2013-05-26 10:07:00,57.6,49.4,30.11,SSE,159,5.8,5.8,74,0.00,OVC,OVC,0.00,WeatherDisplay:10.37,2013-05-26 15:07:00,
2013-05-26 10:12:00,57.6,49.7,30.11,SSE,158,2.3,2.3,75,0.00,OVC,OVC,0.00,WeatherDisplay:10.37,2013-05-26 15:12:00,
2013-05-26 10:17:00,57.6,49.7,30.11,SSE,158,2.3,2.3,75,0.00,OVC,OVC,0.00,WeatherDisplay:10.37,2013-05-26 15:17:00,
2013-05-26 10:23:00,57.5,49.6,30.11,SSE,160,3.5,3.5,75,0.00,OVC,OVC,0.00,WeatherDisplay:10.37,2013-05-26 15:23:00,
2013-05-26 10:28:00,57.4,49.5,30.12,East,80,2.3,2.3,75,0.00,OVC,OVC,0.00,WeatherDisplay:10.37,2013-05-26 15:28:00,
2013-05-26 10:33:00,57.2,49.3,30.11,ENE,58,4.6,4.6,75,0.00,OVC,OVC,0.00,WeatherDisplay:10.37,2013-05-26 15:33:00,
2013-05-26 10:38:00,57.2,49.7,30.12,NE,51,4.6,4.6,76,0.00,OVC,OVC,0.00,WeatherDisplay:10.37,2013-05-26 15:38:00,
2013-05-26 10:44:00,57.1,49.6,30.12,NE,49,2.3,2.3,76,0.00,OVC,OVC,0.00,WeatherDisplay:10.37,2013-05-26 15:44:00,
2013-05-26 10:49:00,57.0,49.5,30.12,NE,46,2.3,0.0,76,0.00,OVC,OVC,0.00,WeatherDisplay:10.37,2013-05-26 15:49:00,
2013-05-26 10:54:00,57.0,49.5,30.12,ENE,73,2.0,2.0,76,0.00,OVC,OVC,0.00,WeatherDisplay:10.37,2013-05-26 15:54:00,
2013-05-26 10:59:00,56.9,49.4,30.11,ENE,72,0.0,0.0,76,0.00,OVC,OVC,0.00,WeatherDisplay:10.37,2013-05-26 15:59:00,
2013-05-26 11:04:00,57.1,50.0,30.11,ENE,71,2.3,2.3,77,0.00,OVC,OVC,0.00,WeatherDisplay:10.37,2013-05-26 16:04:00,
2013-05-26 11:10:00,57.2,50.1,30.11,SE,132,3.5,3.5,77,0.00,OVC,OVC,0.00,WeatherDisplay:10.37,2013-05-26 16:10:00,
2013-05-26 11:15:00,57.1,50.0,30.11,East,82,3.5,3.5,77,0.00,OVC,OVC,0.00,WeatherDisplay:10.37,2013-05-26 16:15:00,
2013-05-26 11:20:00,57.1,50.0,30.10,NE,54,1.2,1.2,77,0.00,OVC,OVC,0.00,WeatherDisplay:10.37,2013-05-26 16:20:00,
2013-05-26 11:26:00,57.1,50.0,30.10,ENE,77,6.9,6.9,77,0.00,OVC,OVC,0.00,WeatherDisplay:10.37,2013-05-26 16:26:00,
2013-05-26 11:31:00,56.9,49.8,30.09,East,94,3.5,3.5,77,0.00,OVC,OVC,0.00,WeatherDisplay:10.37,2013-05-26 16:31:00,
2013-05-26 11:36:00,56.9,49.8,30.09,ENE,64,3.5,3.5,77,0.00,OVC,OVC,0.00,WeatherDisplay:10.37,2013-05-26 16:36:00,
2013-05-26 11:41:00,56.9,49.8,30.09,ESE,109,11.5,11.5,77,0.00,OVC,OVC,0.00,WeatherDisplay:10.37,2013-05-26 16:41:00,
2013-05-26 11:47:00,56.8,49.7,30.08,East,86,11.5,11.5,77,0.00,OVC,OVC,0.00,WeatherDisplay:10.37,2013-05-26 16:47:00,
2013-05-26 11:52:00,56.8,49.7,30.09,ENE,57,3.5,3.5,77,0.00,OVC,OVC,0.00,WeatherDisplay:10.37,2013-05-26 16:52:00,
2013-05-26 11:57:00,56.8,50.0,30.09,ESE,122,3.5,3.5,78,0.00,OVC,OVC,0.00,WeatherDisplay:10.37,2013-05-26 16:57:00,
2013-05-26 12:02:00,56.9,50.1,30.08,SE,142,3.5,3.5,78,0.00,OVC,OVC,0.00,WeatherDisplay:10.37,2013-05-26 17:02:00,
2013-05-26 12:08:00,56.9,50.1,30.08,East,80,3.5,3.5,78,0.00,OVC,OVC,0.00,WeatherDisplay:10.37,2013-05-26 17:08:00,
2013-05-26 12:13:00,57.0,50.2,30.07,SSE,153,4.6,4.6,78,0.00,OVC,OVC,0.00,WeatherDisplay:10.37,2013-05-26 17:13:00,
2013-05-26 12:18:00,57.2,50.4,30.07,ESE,115,6.9,6.9,78,0.00,OVC,OVC,0.00,WeatherDisplay:10.37,2013-05-26 17:18:00,
2013-05-26 12:23:00,57.3,50.5,30.07,SSE,152,4.6,4.6,78,0.00,OVC,OVC,0.00,WeatherDisplay:10.37,2013-05-26 17:23:00,
2013-05-26 12:28:00,57.1,50.0,30.07,ENE,59,3.5,3.5,77,0.00,OVC,OVC,0.00,WeatherDisplay:10.37,2013-05-26 17:28:00,
2013-05-26 12:34:00,57.1,50.3,30.08,East,90,10.0,10.0,78,0.00,OVC,OVC,0.00,WeatherDisplay:10.37,2013-05-26 17:34:00,
2013-05-26 12:39:00,57.1,50.3,30.07,SSE,150,3.5,3.5,78,0.00,OVC,OVC,0.00,WeatherDisplay:10.37,2013-05-26 17:39:00,
2013-05-26 12:44:00,57.2,50.4,30.07,SSE,147,4.0,4.0,78,0.00,OVC,OVC,0.00,WeatherDisplay:10.37,2013-05-26 17:44:00,
2013-05-26 12:50:00,57.0,50.2,30.07,ENE,72,4.6,4.6,78,0.00,OVC,OVC,0.00,WeatherDisplay:10.37,2013-05-26 17:50:00,
2013-05-26 12:55:00,56.9,50.1,30.08,SE,128,1.2,1.2,78,0.00,OVC,OVC,0.00,WeatherDisplay:10.37,2013-05-26 17:55:00,
2013-05-26 13:00:00,56.7,49.9,30.08,SE,142,2.3,2.3,78,0.00,OVC,OVC,0.00,WeatherDisplay:10.37,2013-05-26 18:00:00,
2013-05-26 13:05:00,56.6,50.2,30.08,ESE,113,3.5,3.5,79,0.00,OVC,OVC,0.00,WeatherDisplay:10.37,2013-05-26 18:05:00,
2013-05-26 13:10:00,56.5,50.1,30.08,ESE,112,3.5,3.5,79,0.00,OVC,OVC,0.00,WeatherDisplay:10.37,2013-05-26 18:10:00,
2013-05-26 13:15:00,56.4,50.0,30.08,SSE,157,4.6,4.6,79,0.00,OVC,OVC,0.00,WeatherDisplay:10.37,2013-05-26 18:15:00,
2013-05-26 13:21:00,56.4,50.0,30.08,SSE,151,3.5,3.5,79,0.00,OVC,OVC,0.00,WeatherDisplay:10.37,2013-05-26 18:21:00,
2013-05-26 13:26:00,56.4,50.3,30.08,SE,136,3.5,3.5,80,0.00,OVC,OVC,0.00,WeatherDisplay:10.37,2013-05-26 18:26:00,
2013-05-26 13:31:00,56.4,50.3,30.08,SSE,149,9.2,9.2,80,0.00,OVC,OVC,0.00,WeatherDisplay:10.37,2013-05-26 18:31:00,
2013-05-26 13:36:00,56.4,50.3,30.08,SE,134,3.0,3.0,80,0.00,OVC,OVC,0.00,WeatherDisplay:10.37,2013-05-26 18:36:00,
2013-05-26 13:41:00,56.6,50.5,30.08,ESE,122,4.6,4.6,80,0.00,OVC,OVC,0.00,WeatherDisplay:10.37,2013-05-26 18:41:00,
2013-05-26 13:47:00,56.6,50.5,30.08,SSE,157,3.5,3.5,80,0.00,OVC,OVC,0.00,WeatherDisplay:10.37,2013-05-26 18:47:00,
2013-05-26 13:52:00,56.7,50.6,30.08,SE,146,10.0,10.0,80,0.00,OVC,OVC,0.00,WeatherDisplay:10.37,2013-05-26 18:52:00,
2013-05-26 13:57:00,56.8,50.7,30.08,SSE,153,2.3,2.3,80,0.00,OVC,OVC,0.00,WeatherDisplay:10.37,2013-05-26 18:57:00,
2013-05-26 14:02:00,56.8,50.7,30.08,SE,134,3.5,3.5,80,0.00,OVC,OVC,0.00,WeatherDisplay:10.37,2013-05-26 19:02:00,
2013-05-26 14:08:00,56.9,50.8,30.07,ESE,110,2.3,2.3,80,0.00,OVC,OVC,0.00,WeatherDisplay:10.37,2013-05-26 19:08:00,
2013-05-26 14:13:00,57.0,50.9,30.07,SE,128,3.5,3.5,80,0.00,OVC,OVC,0.00,WeatherDisplay:10.37,2013-05-26 19:13:00,
2013-05-26 14:18:00,57.5,51.7,30.06,SE,132,10.4,10.4,81,0.00,OVC,OVC,0.00,WeatherDisplay:10.37,2013-05-26 19:18:00,
2013-05-26 14:23:00,58.1,52.3,30.06,SSE,157,3.5,3.5,81,0.00,OVC,OVC,0.00,WeatherDisplay:10.37,2013-05-26 19:23:00,
2013-05-26 14:28:00,58.3,52.2,30.06,SSE,161,11.5,11.5,80,0.00,OVC,OVC,0.00,WeatherDisplay:10.37,2013-05-26 19:28:00,
2013-05-26 14:33:00,58.5,52.0,30.06,SE,132,3.5,0.0,79,0.00,OVC,OVC,0.00,WeatherDisplay:10.37,2013-05-26 19:33:00,
2013-05-26 14:39:00,58.6,52.1,30.06,SE,143,2.3,2.3,79,0.00,OVC,OVC,0.00,WeatherDisplay:10.37,2013-05-26 19:39:00,
2013-05-26 14:44:00,58.6,51.8,30.06,SE,132,6.9,6.9,78,0.00,OVC,OVC,0.00,WeatherDisplay:10.37,2013-05-26 19:44:00,
2013-05-26 14:49:00,58.8,52.0,30.04,SE,126,14.0,14.0,78,0.00,OVC,OVC,0.00,WeatherDisplay:10.37,2013-05-26 19:49:00,
2013-05-26 14:54:00,59.0,52.1,30.05,SE,146,4.6,4.6,78,0.00,OVC,OVC,0.00,WeatherDisplay:10.37,2013-05-26 19:54:00,
2013-05-26 14:59:00,59.0,52.1,30.05,SSE,158,5.0,5.0,78,0.00,OVC,OVC,0.00,WeatherDisplay:10.37,2013-05-26 19:59:00,
2013-05-26 15:05:00,59.4,52.2,30.04,ESE,108,2.3,2.3,77,0.00,OVC,OVC,0.00,WeatherDisplay:10.37,2013-05-26 20:05:00,
2013-05-26 15:10:00,60.0,52.8,30.04,SSE,165,3.5,3.5,77,0.00,OVC,OVC,0.00,WeatherDisplay:10.37,2013-05-26 20:10:00,
2013-05-26 15:15:00,60.5,52.9,30.03,SSE,157,6.9,6.9,76,0.00,OVC,OVC,0.00,WeatherDisplay:10.37,2013-05-26 20:15:00,
2013-05-26 15:20:00,61.4,53.4,30.02,SSE,159,6.9,6.9,75,0.00,OVC,OVC,0.00,WeatherDisplay:10.37,2013-05-26 20:20:00,
2013-05-26 15:25:00,62.3,53.5,30.02,ESE,123,11.5,11.5,73,0.00,OVC,OVC,0.00,WeatherDisplay:10.37,2013-05-26 20:25:00,
2013-05-26 15:31:00,62.9,53.7,30.02,SE,138,4.0,4.0,72,0.00,OVC,OVC,0.00,WeatherDisplay:10.37,2013-05-26 20:31:00,
2013-05-26 15:36:00,63.3,53.7,30.02,SSE,153,3.5,3.5,71,0.00,OVC,OVC,0.00,WeatherDisplay:10.37,2013-05-26 20:36:00,
2013-05-26 15:41:00,63.8,54.2,30.02,NE,52,3.5,3.5,71,0.00,OVC,OVC,0.00,WeatherDisplay:10.37,2013-05-26 20:41:00,
2013-05-26 15:47:00,64.0,54.0,30.02,SE,138,3.5,3.5,70,0.00,OVC,OVC,0.00,WeatherDisplay:10.37,2013-05-26 20:47:00,
2013-05-26 15:52:00,64.2,54.2,30.04,NE,54,3.5,3.5,70,0.00,OVC,OVC,0.00,WeatherDisplay:10.37,2013-05-26 20:52:00,
2013-05-26 15:57:00,63.4,53.4,30.05,NE,41,3.5,3.5,70,0.00,OVC,OVC,0.00,WeatherDisplay:10.37,2013-05-26 20:57:00,
2013-05-26 16:02:00,62.5,53.0,30.04,ENE,57,3.5,3.5,71,0.00,OVC,OVC,0.00,WeatherDisplay:10.37,2013-05-26 21:02:00,
2013-05-26 16:07:00,61.9,53.1,30.04,NNW,348,2.3,2.3,73,0.00,OVC,OVC,0.00,WeatherDisplay:10.37,2013-05-26 21:07:00,
2013-05-26 16:13:00,61.3,52.9,30.04,ENE,65,2.3,0.0,74,0.00,OVC,OVC,0.00,WeatherDisplay:10.37,2013-05-26 21:13:00,
2013-05-26 16:18:00,61.1,53.1,30.04,ENE,65,1.2,1.2,75,0.00,OVC,OVC,0.00,WeatherDisplay:10.37,2013-05-26 21:18:00,
2013-05-26 16:23:00,60.7,53.1,30.03,NNE,15,1.2,1.3,76,0.01,RA,RA,0.01,WeatherDisplay:10.37,2013-05-26 21:23:00,
2013-05-26 16:28:00,60.4,53.2,30.03,ENE,70,3.5,3.5,77,0.04,RA,RA,0.05,WeatherDisplay:10.37,2013-05-26 21:28:00,
2013-05-26 16:33:00,59.9,53.4,30.03,ENE,66,3.5,3.5,79,0.07,RA,RA,0.07,WeatherDisplay:10.37,2013-05-26 21:33:00,
2013-05-26 16:38:00,59.4,52.9,30.03,East,82,3.5,3.5,79,0.07,RA,RA,0.07,WeatherDisplay:10.37,2013-05-26 21:38:00,
2013-05-26 16:43:00,59.0,52.8,30.03,NE,53,5.8,5.8,80,0.07,OVC,OVC,0.07,WeatherDisplay:10.37,2013-05-26 21:43:00,
2013-05-26 16:48:00,58.7,52.9,30.02,SE,131,4.6,4.6,81,0.07,OVC,OVC,0.07,WeatherDisplay:10.37,2013-05-26 21:48:00,
2013-05-26 16:54:00,58.5,53.0,30.01,East,82,2.3,2.3,82,0.07,OVC,OVC,0.07,WeatherDisplay:10.37,2013-05-26 21:54:00,
2013-05-26 16:59:00,58.5,53.0,30.01,SSE,148,11.5,11.5,82,0.07,OVC,OVC,0.07,WeatherDisplay:10.37,2013-05-26 21:59:00,
2013-05-26 17:04:00,58.4,52.9,30.01,East,85,2.3,2.3,82,0.07,OVC,OVC,0.07,WeatherDisplay:10.37,2013-05-26 22:04:00,
2013-05-26 17:09:00,58.4,52.9,30.02,NE,43,3.5,3.5,82,0.07,OVC,OVC,0.07,WeatherDisplay:10.37,2013-05-26 22:09:00,
2013-05-26 17:14:00,58.3,52.8,30.01,ENE,78,3.5,3.5,82,0.07,OVC,OVC,0.07,WeatherDisplay:10.37,2013-05-26 22:14:00,
2013-05-26 17:19:00,58.3,53.2,30.01,East,79,0.0,0.0,83,0.07,OVC,OVC,0.07,WeatherDisplay:10.37,2013-05-26 22:19:00,
2013-05-26 17:24:00,58.3,53.2,30.02,SSE,148,6.9,6.9,83,0.05,OVC,OVC,0.07,WeatherDisplay:10.37,2013-05-26 22:24:00,
2013-05-26 17:29:00,58.2,53.1,30.01,NE,42,4.6,4.6,83,0.01,OVC,OVC,0.07,WeatherDisplay:10.37,2013-05-26 22:29:00,
2013-05-26 17:34:00,58.2,53.1,30.01,NE,48,4.6,4.6,83,0.00,OVC,OVC,0.07,WeatherDisplay:10.37,2013-05-26 22:34:00,
2013-05-26 17:40:00,58.2,53.1,30.02,ENE,68,3.5,3.5,83,0.00,OVC,OVC,0.07,WeatherDisplay:10.37,2013-05-26 22:40:00,
2013-05-26 17:45:00,58.2,53.1,30.02,NE,54,5.8,5.8,83,0.00,OVC,OVC,0.07,WeatherDisplay:10.37,2013-05-26 22:45:00,
2013-05-26 17:50:00,58.1,53.0,30.02,ENE,78,2.3,2.3,83,0.00,OVC,OVC,0.07,WeatherDisplay:10.37,2013-05-26 22:50:00,
2013-05-26 17:55:00,58.1,53.0,30.02,ENE,60,5.8,5.8,83,0.00,OVC,OVC,0.07,WeatherDisplay:10.37,2013-05-26 22:55:00,
2013-05-26 18:01:00,58.1,53.0,30.03,ENE,63,2.3,2.3,83,0.00,OVC,OVC,0.07,WeatherDisplay:10.37,2013-05-26 23:01:00,
2013-05-26 18:06:00,58.0,52.9,30.02,ENE,67,3.5,3.5,83,0.00,OVC,OVC,0.07,WeatherDisplay:10.37,2013-05-26 23:06:00,
2013-05-26 18:11:00,58.0,52.9,30.01,East,82,3.5,3.5,83,0.02,RA,RA,0.09,WeatherDisplay:10.37,2013-05-26 23:11:00,
2013-05-26 18:16:00,58.0,52.9,30.02,South,171,3.0,3.0,83,0.03,RA,RA,0.10,WeatherDisplay:10.37,2013-05-26 23:16:00,
2013-05-26 18:22:00,58.0,52.9,30.10,West,260,9.2,9.2,83,0.03,RA,RA,0.10,WeatherDisplay:10.37,2013-05-26 23:22:00,
2013-05-26 18:27:00,58.1,53.0,30.09,West,270,6.9,6.9,83,0.06,RA,RA,0.15,WeatherDisplay:10.37,2013-05-26 23:27:00,
2013-05-26 18:32:00,58.0,52.9,30.04,SSW,196,2.3,2.3,83,0.37,RA,RA,0.46,WeatherDisplay:10.37,2013-05-26 23:32:00,
2013-05-26 18:37:00,58.0,53.2,30.01,SSE,159,3.5,3.5,84,0.48,RA,RA,0.55,WeatherDisplay:10.37,2013-05-26 23:37:00,
2013-05-26 18:42:00,58.0,53.2,30.03,SSE,159,2.3,2.3,84,0.51,RA,RA,0.58,WeatherDisplay:10.37,2013-05-26 23:42:00,
2013-05-26 18:47:00,58.1,53.3,30.02,SSE,147,3.5,3.5,84,0.52,RA,RA,0.59,WeatherDisplay:10.37,2013-05-26 23:47:00,
2013-05-26 18:53:00,58.1,53.3,30.00,SSE,155,5.0,5.0,84,0.52,RA,RA,0.59,WeatherDisplay:10.37,2013-05-26 23:53:00,
2013-05-26 18:58:00,58.0,53.2,29.96,SSE,154,15.0,15.0,84,0.52,OVC,OVC,0.59,WeatherDisplay:10.37,2013-05-26 23:58:00,
2013-05-26 19:03:00,57.9,53.1,29.92,SSE,167,6.9,6.9,84,0.53,RA,RA,0.60,WeatherDisplay:10.37,2013-05-27 00:03:00,
2013-05-26 19:08:00,57.9,53.1,29.93,South,178,3.5,3.5,84,0.52,RA,RA,0.60,WeatherDisplay:10.37,2013-05-27 00:08:00,
2013-05-26 19:13:00,58.4,53.9,29.92,South,182,13.8,13.8,85,0.51,OVC,OVC,0.60,WeatherDisplay:10.37,2013-05-27 00:13:00,
2013-05-26 19:18:00,59.2,54.7,29.91,SSE,157,11.5,11.5,85,0.50,OVC,OVC,0.60,WeatherDisplay:10.37,2013-05-27 00:18:00,
2013-05-26 19:24:00,60.0,55.5,29.91,SE,144,4.0,4.0,85,0.50,OVC,OVC,0.60,WeatherDisplay:10.37,2013-05-27 00:24:00,
2013-05-26 19:29:00,60.2,55.7,29.91,South,169,10.4,10.4,85,0.40,OVC,OVC,0.60,WeatherDisplay:10.37,2013-05-27 00:29:00,
2013-05-26 19:34:00,60.4,55.9,29.92,South,169,10.4,10.4,85,0.10,OVC,OVC,0.60,WeatherDisplay:10.37,2013-05-27 00:34:00,
2013-05-26 19:39:00,60.7,56.2,29.91,SSE,150,5.0,5.0,85,0.04,OVC,OVC,0.60,WeatherDisplay:10.37,2013-05-27 00:39:00,
2013-05-26 19:44:00,60.9,56.4,29.92,SSE,165,4.6,4.6,85,0.02,OVC,OVC,0.60,WeatherDisplay:10.37,2013-05-27 00:44:00,
2013-05-26 19:50:00,61.0,56.5,29.92,SSE,161,3.5,3.5,85,0.01,OVC,OVC,0.60,WeatherDisplay:10.37,2013-05-27 00:50:00,
2013-05-26 19:55:00,61.0,56.5,29.90,South,178,5.8,5.8,85,0.01,OVC,OVC,0.60,WeatherDisplay:10.37,2013-05-27 00:55:00,
2013-05-26 20:00:00,60.9,56.4,29.90,South,169,3.5,3.5,85,0.00,OVC,OVC,0.60,WeatherDisplay:10.37,2013-05-27 01:00:00,
2013-05-26 20:05:00,60.8,56.3,29.90,ESE,110,4.0,4.0,85,0.00,OVC,OVC,0.60,WeatherDisplay:10.37,2013-05-27 01:05:00,
2013-05-26 20:10:00,60.7,56.2,29.91,SSE,168,5.8,5.8,85,0.00,OVC,OVC,0.60,WeatherDisplay:10.37,2013-05-27 01:10:00,
2013-05-26 20:16:00,60.6,56.1,29.91,SSE,156,4.6,4.6,85,0.00,OVC,OVC,0.60,WeatherDisplay:10.37,2013-05-27 01:16:00,
2013-05-26 20:21:00,60.5,56.0,29.91,SE,143,4.6,4.6,85,0.00,OVC,OVC,0.60,WeatherDisplay:10.37,2013-05-27 01:21:00,
2013-05-26 20:26:00,60.5,56.0,29.92,SE,144,3.5,3.5,85,0.00,OVC,OVC,0.60,WeatherDisplay:10.37,2013-05-27 01:26:00,
2013-05-26 20:31:00,60.5,56.0,29.93,SSE,165,3.0,3.0,85,0.00,OVC,OVC,0.60,WeatherDisplay:10.37,2013-05-27 01:31:00,
2013-05-26 20:36:00,60.5,56.0,29.93,SE,140,2.3,2.3,85,0.00,OVC,OVC,0.60,WeatherDisplay:10.37,2013-05-27 01:36:00,
2013-05-26 20:41:00,60.4,55.9,29.95,NNE,23,3.5,3.5,85,0.00,OVC,OVC,0.60,WeatherDisplay:10.37,2013-05-27 01:41:00,
2013-05-26 20:46:00,60.4,55.9,29.95,NW,319,0.0,0.0,85,0.00,OVC,OVC,0.60,WeatherDisplay:10.37,2013-05-27 01:46:00,
2013-05-26 20:51:00,60.3,55.8,29.95,NW,319,2.3,2.3,85,0.00,OVC,OVC,0.60,WeatherDisplay:10.37,2013-05-27 01:51:00,
2013-05-26 20:57:00,60.3,55.8,29.95,NW,319,3.5,3.5,85,0.00,OVC,OVC,0.60,WeatherDisplay:10.37,2013-05-27 01:57:00,
2013-05-26 21:02:00,60.3,55.8,29.94,NW,319,1.0,1.0,85,0.00,OVC,OVC,0.60,WeatherDisplay:10.37,2013-05-27 02:02:00,
2013-05-26 21:07:00,60.2,55.7,29.94,NNW,338,2.3,2.3,85,0.00,OVC,OVC,0.60,WeatherDisplay:10.37,2013-05-27 02:07:00,
2013-05-26 21:12:00,60.1,55.6,29.94,NNW,338,3.5,3.5,85,0.00,OVC,OVC,0.60,WeatherDisplay:10.37,2013-05-27 02:12:00,
2013-05-26 21:17:00,60.0,55.5,29.94,NE,34,0.0,0.0,85,0.00,OVC,OVC,0.60,WeatherDisplay:10.37,2013-05-27 02:17:00,
2013-05-26 21:23:00,59.8,55.3,29.94,NNE,29,2.3,0.0,85,0.00,OVC,OVC,0.60,WeatherDisplay:10.37,2013-05-27 02:23:00,
2013-05-26 21:28:00,59.7,55.2,29.94,NE,34,1.2,1.2,85,0.00,OVC,OVC,0.60,WeatherDisplay:10.37,2013-05-27 02:28:00,
2013-05-26 21:33:00,59.5,54.7,29.95,NE,34,0.0,0.0,84,0.00,OVC,OVC,0.60,WeatherDisplay:10.37,2013-05-27 02:33:00,
2013-05-26 21:38:00,59.4,54.9,29.95,NE,34,2.0,2.0,85,0.00,OVC,OVC,0.60,WeatherDisplay:10.37,2013-05-27 02:38:00,
2013-05-26 21:43:00,59.3,54.8,29.95,NE,34,2.3,2.3,85,0.00,OVC,OVC,0.60,WeatherDisplay:10.37,2013-05-27 02:43:00,
2013-05-26 21:49:00,59.2,54.7,29.95,NE,34,0.0,0.0,85,0.00,OVC,OVC,0.60,WeatherDisplay:10.37,2013-05-27 02:49:00,
2013-05-26 21:54:00,59.1,54.6,29.94,NE,34,0.0,0.0,85,0.00,OVC,OVC,0.60,WeatherDisplay:10.37,2013-05-27 02:54:00,
2013-05-26 21:59:00,59.1,54.6,29.95,NNE,32,3.5,3.5,85,0.00,OVC,OVC,0.60,WeatherDisplay:10.37,2013-05-27 02:59:00,
2013-05-26 22:04:00,59.1,54.6,29.96,NNE,27,3.5,3.5,85,0.00,OVC,OVC,0.60,WeatherDisplay:10.37,2013-05-27 03:04:00,
2013-05-26 22:09:00,59.1,54.6,29.96,North,355,3.5,3.5,85,0.00,OVC,OVC,0.60,WeatherDisplay:10.37,2013-05-27 03:09:00,
2013-05-26 22:14:00,59.0,54.5,29.95,ENE,61,2.3,2.3,85,0.00,OVC,OVC,0.60,WeatherDisplay:10.37,2013-05-27 03:14:00,
2013-05-26 22:19:00,59.0,54.5,29.95,ENE,69,9.2,9.2,85,0.00,OVC,OVC,0.60,WeatherDisplay:10.37,2013-05-27 03:19:00,
2013-05-26 22:25:00,59.0,54.5,29.94,NNE,14,5.8,5.8,85,0.00,OVC,OVC,0.60,WeatherDisplay:10.37,2013-05-27 03:25:00,
2013-05-26 22:30:00,59.0,54.5,29.93,East,79,4.6,4.6,85,0.00,OVC,OVC,0.60,WeatherDisplay:10.37,2013-05-27 03:30:00,
2013-05-26 22:35:00,59.0,54.5,29.94,SSE,159,2.3,2.3,85,0.00,OVC,OVC,0.60,WeatherDisplay:10.37,2013-05-27 03:35:00,
2013-05-26 22:40:00,59.0,54.5,29.94,NE,48,9.2,9.2,85,0.00,OVC,OVC,0.60,WeatherDisplay:10.37,2013-05-27 03:40:00,
2013-05-26 22:46:00,58.8,54.3,29.94,NE,52,5.8,5.8,85,0.00,OVC,OVC,0.60,WeatherDisplay:10.37,2013-05-27 03:46:00,
2013-05-26 22:51:00,58.6,54.1,29.93,East,82,3.5,3.5,85,0.00,OVC,OVC,0.60,WeatherDisplay:10.37,2013-05-27 03:51:00,
2013-05-26 22:56:00,58.5,54.0,29.93,East,81,3.5,3.5,85,0.00,OVC,OVC,0.60,WeatherDisplay:10.37,2013-05-27 03:56:00,
2013-05-26 23:01:00,58.4,53.9,29.94,ENE,64,3.0,3.0,85,0.00,OVC,OVC,0.60,WeatherDisplay:10.37,2013-05-27 04:01:00,
2013-05-26 23:02:00,58.4,53.9,29.94,ESE,105,6.9,6.9,85,0.00,OVC,OVC,0.60,WeatherDisplay:10.37,2013-05-27 04:02:00,
2013-05-26 23:07:00,58.3,53.8,29.94,East,90,3.5,3.5,85,0.00,OVC,OVC,0.60,WeatherDisplay:10.37,2013-05-27 04:07:00,
2013-05-26 23:13:00,58.2,53.7,29.94,ENE,57,10.4,10.4,85,0.00,OVC,OVC,0.60,WeatherDisplay:10.37,2013-05-27 04:13:00,
2013-05-26 23:18:00,58.2,53.7,29.95,ENE,77,4.0,4.0,85,0.00,OVC,OVC,0.60,WeatherDisplay:10.37,2013-05-27 04:18:00,
2013-05-26 23:23:00,58.2,53.7,29.95,ENE,77,3.5,3.5,85,0.00,OVC,OVC,0.60,WeatherDisplay:10.37,2013-05-27 04:23:00,
2013-05-26 23:28:00,58.2,53.7,29.95,East,98,4.6,4.6,85,0.00,OVC,OVC,0.60,WeatherDisplay:10.37,2013-05-27 04:28:00,
2013-05-26 23:33:00,58.1,53.6,29.95,NE,42,3.5,3.5,85,0.00,OVC,OVC,0.60,WeatherDisplay:10.37,2013-05-27 04:33:00,
2013-05-26 23:38:00,58.1,53.6,29.95,ENE,74,3.0,3.0,85,0.00,OVC,OVC,0.60,WeatherDisplay:10.37,2013-05-27 04:38:00,
2013-05-26 23:44:00,58.1,53.6,29.95,ENE,73,5.8,5.8,85,0.00,OVC,OVC,0.60,WeatherDisplay:10.37,2013-05-27 04:44:00,
2013-05-26 23:49:00,58.1,53.6,29.96,ENE,60,3.5,3.5,85,0.00,OVC,OVC,0.60,WeatherDisplay:10.37,2013-05-27 04:49:00,
2013-05-26 23:54:00,58.2,53.7,29.97,ENE,59,4.0,4.0,85,0.00,OVC,OVC,0.60,WeatherDisplay:10.37,2013-05-27 04:54:00,
2013-05-26 23:59:00,58.2,53.7,29.98,ENE,72,3.5,3.5,85,0.00,OVC,OVC,0.60,WeatherDisplay:10.37,2013-05-27 04:59:00,